• In India
  • List of Countries
  • For 7 days
  • Water Temperature
  • Satellite Maps
  • Weather Map
  • Weather Widgets
  • user-avatar
    Login

    Hourly Weather Lubomierz

    Today, 15 December, Saturday

    Time Temperature Precipitation Wind Pressure Humidity
    00:00 -5°C° 0 mm 2 mps 736 mmHg 87%
    01:00 -5°C° 0 mm 2 mps 736 mmHg 88%
    02:00 -5°C° 0 mm 2 mps 736 mmHg 89%
    03:00 -5°C° 0 mm 2 mps 735 mmHg 89%
    04:00 -5°C° 0 mm 2 mps 735 mmHg 90%
    05:00 -5°C° 0 mm 2 mps 735 mmHg 91%
    06:00 -5°C° 0 mm 2 mps 736 mmHg 91%
    07:00 -5°C° 0 mm 2 mps 736 mmHg 91%
    08:00 -4°C° 0 mm 2 mps 736 mmHg 89%
    09:00 -4°C° 0 mm 2 mps 736 mmHg 88%
    10:00 -4°C° 0 mm 3 mps 736 mmHg 86%
    11:00 -4°C° 0 mm 3 mps 736 mmHg 84%
    12:00 -2°C° 0 mm 3 mps 736 mmHg 81%
    13:00 -2°C° 0 mm 3 mps 735 mmHg 79%
    14:00 -4°C° 0 mm 3 mps 735 mmHg 81%
    15:00 -3°C° 0 mm 2 mps 735 mmHg 83%
    16:00 -3°C° 0 mm 2 mps 735 mmHg 85%
    17:00 -4°C° 0 mm 2 mps 735 mmHg 86%
    18:00 -4°C° 0 mm 2 mps 735 mmHg 88%
    19:00 -5°C° 0 mm 2 mps 734 mmHg 90%
    20:00 -5°C° 0 mm 2 mps 734 mmHg 90%
    21:00 -5°C° 0 mm 2 mps 734 mmHg 90%
    22:00 -5°C° 0 mm 2 mps 734 mmHg 91%
    23:00 -6°C° 0 mm 2 mps 733 mmHg 91%

    Tomorrow, 16 December, Sunday

    Time Temperature Precipitation Wind Pressure Humidity
    00:00 -6°C° 0 mm 2 mps 733 mmHg 91%
    01:00 -6°C° 0 mm 2 mps 732 mmHg 91%
    02:00 -6°C° 0 mm 2 mps 732 mmHg 91%
    03:00 -6°C° 0 mm 2 mps 731 mmHg 91%
    04:00 -6°C° 0 mm 2 mps 731 mmHg 90%
    05:00 -6°C° 0 mm 2 mps 731 mmHg 90%
    06:00 -6°C° 0 mm 2 mps 730 mmHg 90%
    07:00 -6°C° 0 mm 2 mps 730 mmHg 89%
    08:00 -6°C° 0 mm 2 mps 730 mmHg 87%
    09:00 -5°C° 0 mm 2 mps 730 mmHg 84%
    10:00 -5°C° 0 mm 2 mps 730 mmHg 82%
    11:00 -4°C° 0 mm 2 mps 729 mmHg 79%
    12:00 -3°C° 0 mm 2 mps 729 mmHg 76%
    13:00 -3°C° 0 mm 2 mps 729 mmHg 72%
    14:00 -3°C° 0 mm 2 mps 728 mmHg 74%
    15:00 -4°C° 0 mm 2 mps 728 mmHg 77%
    16:00 -4°C° 0 mm 2 mps 728 mmHg 79%
    17:00 -4°C° 0 mm 2 mps 728 mmHg 78%
    18:00 -5°C° 0 mm 3 mps 728 mmHg 78%
    19:00 -5°C° 0 mm 3 mps 728 mmHg 77%
    20:00 -5°C° 0 mm 3 mps 728 mmHg 78%
    21:00 -5°C° 0 mm 3 mps 728 mmHg 79%
    22:00 -5°C° 0 mm 3 mps 728 mmHg 80%
    23:00 -5°C° 0 mm 3 mps 729 mmHg 81%

    Day after tomorrow, 17 December, Monday

    Time Temperature Precipitation Wind Pressure Humidity
    00:00 -4°C° 0 mm 2 mps 729 mmHg 82%
    01:00 -4°C° 0 mm 2 mps 729 mmHg 83%
    02:00 -4°C° 0 mm 2 mps 729 mmHg 84%
    03:00 -4°C° 0 mm 2 mps 729 mmHg 84%
    04:00 -3°C° 0 mm 2 mps 729 mmHg 85%
    05:00 -4°C° 0 mm 2 mps 730 mmHg 86%
    06:00 -4°C° 0 mm 2 mps 730 mmHg 87%
    07:00 -4°C° 0 mm 2 mps 730 mmHg 89%
    08:00 -3°C° 0 mm 2 mps 731 mmHg 87%
    09:00 -3°C° 0 mm 2 mps 731 mmHg 85%
    10:00 -2°C° 0 mm 2 mps 732 mmHg 83%
    11:00 -1°C° 0 mm 2 mps 732 mmHg 82%
    12:00 +2°C° 0 mm 1 mps 732 mmHg 81%
    13:00 +2°C° 0 mm 1 mps 732 mmHg 80%
    14:00 +1°C° 0 mm 1 mps 732 mmHg 82%
    15:00 +1°C° 0 mm 1 mps 733 mmHg 85%
    16:00 0°C° 0 mm 1 mps 733 mmHg 88%
    17:00 -1°C° 0 mm 1 mps 733 mmHg 88%
    18:00 -3°C° 0 mm 2 mps 734 mmHg 88%
    19:00 -3°C° 0 mm 2 mps 734 mmHg 88%
    20:00 -3°C° 0 mm 2 mps 735 mmHg 88%
    21:00 -3°C° 0 mm 2 mps 735 mmHg 88%
    22:00 -3°C° 0 mm 2 mps 735 mmHg 87%
    23:00 -3°C° 0 mm 2 mps 735 mmHg 87%

    18 December, Tuesday

    Time Temperature Precipitation Wind Pressure Humidity
    00:00 -3°C° 0 mm 2 mps 735 mmHg 88%
    01:00 -3°C° 0 mm 2 mps 735 mmHg 88%
    02:00 -3°C° 0 mm 2 mps 735 mmHg 88%
    03:00 -3°C° 0 mm 2 mps 735 mmHg 89%
    04:00 -3°C° 0 mm 2 mps 735 mmHg 89%
    05:00 -3°C° 0 mm 2 mps 736 mmHg 89%
    06:00 -3°C° 0 mm 2 mps 736 mmHg 89%
    07:00 -3°C° 0 mm 2 mps 736 mmHg 89%
    08:00 -2°C° 0 mm 2 mps 736 mmHg 88%
    09:00 -2°C° 0 mm 2 mps 736 mmHg 87%
    10:00 +1°C° 0 mm 1 mps 736 mmHg 85%
    11:00 +2°C° 0 mm 1 mps 736 mmHg 85%
    12:00 +2°C° 0 mm 1 mps 736 mmHg 84%
    13:00 +3°C° 0 mm 1 mps 736 mmHg 84%
    14:00 +2°C° 0 mm 1 mps 736 mmHg 86%
    15:00 +1°C° 0 mm 1 mps 736 mmHg 88%
    16:00 0°C° 0 mm 1 mps 735 mmHg 91%
    17:00 0°C° 0 mm 1 mps 735 mmHg 91%
    18:00 0°C° 0 mm 1 mps 735 mmHg 91%
    19:00 0°C° 0 mm 1 mps 735 mmHg 91%
    20:00 0°C° 0 mm 1 mps 735 mmHg 91%
    21:00 0°C° 0 mm 1 mps 735 mmHg 91%
    22:00 0°C° 0 mm 1 mps 734 mmHg 91%
    23:00 0°C° 0 mm 1 mps 734 mmHg 91%

    19 December, Wednesday

    Time Temperature Precipitation Wind Pressure Humidity
    00:00 -1°C° 0 mm 1 mps 734 mmHg 91%
    01:00 -1°C° 0 mm 1 mps 734 mmHg 91%
    02:00 -1°C° 0 mm 1 mps 733 mmHg 91%
    03:00 -3°C° 0 mm 2 mps 733 mmHg 91%
    04:00 -3°C° 0 mm 2 mps 733 mmHg 91%
    05:00 -3°C° 0 mm 2 mps 733 mmHg 91%
    06:00 -3°C° 0 mm 2 mps 733 mmHg 91%
    07:00 -3°C° 0 mm 2 mps 733 mmHg 91%
    08:00 -2°C° 0 mm 2 mps 733 mmHg 89%
    09:00 -2°C° 0 mm 2 mps 733 mmHg 86%
    10:00 -1°C° 0 mm 2 mps 733 mmHg 84%
    11:00 -1°C° 0 mm 2 mps 733 mmHg 83%
    12:00 +1°C° 0 mm 2 mps 733 mmHg 82%
    13:00 +2°C° 0 mm 2 mps 732 mmHg 81%
    14:00 +1°C° 0 mm 2 mps 732 mmHg 84%
    15:00 -1°C° 0 mm 2 mps 732 mmHg 87%
    16:00 -2°C° 0 mm 2 mps 732 mmHg 90%
    17:00 -2°C° 0 mm 3 mps 732 mmHg 90%
    18:00 -4°C° 0 mm 3 mps 732 mmHg 90%
    19:00 -4°C° 0 mm 3 mps 732 mmHg 91%
    20:00 -4°C° 0 mm 3 mps 732 mmHg 90%
    21:00 -4°C° 0 mm 3 mps 732 mmHg 90%
    22:00 -4°C° 0 mm 3 mps 732 mmHg 90%
    23:00 -4°C° 0 mm 3 mps 731 mmHg 89%

    20 December, Thursday

    Time Temperature Precipitation Wind Pressure Humidity
    00:00 -4°C° 0 mm 3 mps 731 mmHg 89%
    01:00 -4°C° 0 mm 3 mps 731 mmHg 88%
    02:00 -4°C° 0 mm 3 mps 731 mmHg 88%
    03:00 -3°C° 0 mm 2 mps 731 mmHg 87%
    04:00 -3°C° 0 mm 2 mps 731 mmHg 86%
    05:00 -3°C° 0 mm 2 mps 731 mmHg 86%
    06:00 -4°C° 0 mm 3 mps 731 mmHg 85%
    07:00 -2°C° 0 mm 3 mps 731 mmHg 85%
    08:00 -2°C° 0 mm 3 mps 731 mmHg 83%
    09:00 -2°C° 0 mm 3 mps 732 mmHg 82%
    10:00 -2°C° 0 mm 3 mps 732 mmHg 81%
    11:00 -1°C° 0.1 mm 3 mps 731 mmHg 81%
    12:00 -1°C° 0.1 mm 3 mps 731 mmHg 80%
    13:00 -1°C° 0.1 mm 3 mps 731 mmHg 80%
    14:00 -1°C° 0 mm 3 mps 731 mmHg 82%
    15:00 -1°C° 0 mm 2 mps 731 mmHg 84%
    16:00 -2°C° 0 mm 2 mps 731 mmHg 86%
    17:00 -2°C° 0 mm 2 mps 731 mmHg 86%
    18:00 -2°C° 0 mm 2 mps 731 mmHg 87%
    19:00 -2°C° 0 mm 2 mps 731 mmHg 87%
    20:00 -2°C° 0 mm 2 mps 731 mmHg 87%
    21:00 -2°C° 0 mm 2 mps 731 mmHg 87%
    22:00 -2°C° 0 mm 2 mps 731 mmHg 87%
    23:00 -2°C° 0 mm 2 mps 731 mmHg 88%
    Show more